[[{"header":{"parameterUnit":"m.s-1","parameterCategory":1,"la1":30.2992,"la2":30.254,"lo1":-89.0895,"lo2":-89.0443,"dy":0.0025,"dx":0.0025,"nx":19,"ny":19,"refTime":"2026-05-13T09:00:00:Z","depth":0,"parameterNumber":2,"parameterNumberName":"U-component_of_WINDS"},"data":[0,0,0,-0.8938,-0.8937,-0.8884,-0.8884,-0.8837,-0.8837,0,0,0,0,0,0,0,0,0,0,0,-0.8967,-0.8967,-0.8938,-0.8937,-0.8884,-0.8884,-0.8837,-0.8837,0,0,0,0,0,0,0,0,0,0,0,-0.8967,-0.8967,-0.8967,-0.8937,-0.8884,-0.8884,-0.8838,-0.887,0,0,0,0,0,0,0,0,0,0,-0.8918,-0.8957,-0.8967,-0.8967,-0.8937,-0.8884,-0.8884,-0.8871,-0.8868,-0.8871,0,-0.8876,0,-0.8856,-0.8835,-0.8835,0,0,0,-0.8928,-0.896,-0.8934,-0.8967,-0.8937,-0.8884,-0.8905,-0.8869,-0.8866,-0.8867,-0.8875,-0.8873,-0.8855,-0.8835,-0.8835,-0.8882,-0.8882,0,0,-0.8931,-0.8964,-0.8936,-0.8932,-0.8941,-0.8907,-0.8904,-0.8867,-0.8879,-0.8875,-0.8872,-0.8855,-0.8835,-0.8835,-0.8881,-0.8882,0,0,0,-0.8946,-0.8967,-0.8941,-0.8935,-0.8923,-0.8906,-0.8902,-0.888,-0.8869,-0.8871,-0.8854,-0.8835,-0.8835,-0.888,-0.8881,-0.8947,0,0,0,-0.8947,-0.8975,-0.8943,-0.8963,-0.8924,-0.8901,-0.8917,-0.8872,-0.8866,-0.8854,-0.8835,-0.8834,-0.8879,-0.8881,-0.8944,-0.8973,0,0,0,-0.8966,-0.8977,-0.8974,-0.8965,-0.8943,-0.8901,-0.8887,-0.887,-0.8857,-0.8835,-0.8834,-0.8879,-0.8881,-0.8941,-0.8968,-0.8996,0,0,0,-0.8996,-0.9033,-0.8976,-0.901,-0.8944,-0.8941,-0.8887,-0.8883,-0.8873,-0.8835,-0.888,-0.8881,-0.894,-0.8965,-0.8993,-0.9027,-0.9044,0,0,-0.9062,-0.9043,-0.906,-0.9007,-0.9024,-0.8947,-0.8973,-0.8932,-0.8899,-0.8889,-0.889,-0.8945,-0.8968,-0.8995,-0.9123,-0.9137,0,0,0,-0.9093,-0.9106,-0.9103,-0.9094,-0.9063,-0.9039,-0.899,-0.8975,-0.8965,-0.8901,-0.896,-0.8973,-0.8988,-0.9003,-0.9014,-0.9026,-0.8889,-0.8889,-0.8889,-0.9235,-0.9191,-0.9217,-0.9167,-0.9159,-0.9108,-0.9097,-0.9068,-0.9026,-0.9041,-0.9038,-0.9121,-0.914,-0.9148,-0.916,-0.9051,-0.9051,-0.9051,-0.9052,-0.9329,-0.9342,-0.9283,-0.9289,-0.9241,-0.9245,-0.9197,-0.9167,-0.9164,-0.9119,-0.913,-0.9087,-0.9164,-0.9173,-0.9056,-0.9055,-0.9055,-0.9054,-0.9054,-0.9419,-0.9417,-0.9397,-0.938,-0.9371,-0.9318,-0.9318,-0.9275,-0.9234,-0.9245,-0.9238,-0.9237,-0.9231,-0.9244,-0.9244,-0.9245,-0.9245,-0.9245,-0.9245,-0.9521,-0.9496,-0.9502,-0.9471,-0.946,-0.9439,-0.9387,-0.9375,-0.935,-0.9319,-0.9319,-0.9276,-0.9179,-0.9157,-0.925,-0.9249,-0.9248,-0.9248,-0.9248,-0.9636,-0.9603,-0.9611,-0.96,-0.956,-0.9555,-0.9499,-0.9478,-0.9461,-0.9463,-0.9416,-0.9352,-0.9329,-0.932,-0.9301,-0.9425,-0.9425,-0.9425,-0.9425,-0.9714,-0.9697,-0.9696,-0.9681,-0.966,-0.961,-0.9621,-0.9581,-0.9534,-0.9522,-0.9497,-0.9467,-0.946,-0.9442,-0.943,-0.9412,-0.9561,-0.9561,-0.9561,-0.9783,-0.9762,-0.978,-0.9733,-0.9699,-0.967,-0.968,-0.9665,-0.9605,-0.9566,-0.9511,-0.9505,-0.9457,-0.9444,-0.9407,-0.9389,-0.9355,0,0]},{"header":{"parameterUnit":"m.s-1","parameterCategory":1,"la1":30.2992,"la2":30.254,"lo1":-89.0895,"lo2":-89.0443,"dy":0.0025,"dx":0.0025,"nx":19,"ny":19,"refTime":"2026-05-13T09:00:00:Z","depth":0,"parameterNumber":3,"parameterNumberName":"V-component_of_WINDS"},"data":[0,0,0,-3.5128,-3.5133,-3.537,-3.5371,-3.5664,-3.5667,0,0,0,0,0,0,0,0,0,0,0,-3.5052,-3.5054,-3.5128,-3.5134,-3.537,-3.5371,-3.5664,-3.5667,0,0,0,0,0,0,0,0,0,0,0,-3.5052,-3.5054,-3.5056,-3.5135,-3.537,-3.5371,-3.5663,-3.5488,0,0,0,0,0,0,0,0,0,0,-3.526,-3.5184,-3.5053,-3.5056,-3.5136,-3.537,-3.5371,-3.548,-3.5499,-3.5553,0,-3.5599,0,-3.5637,-3.5686,-3.5687,0,0,0,-3.5138,-3.5168,-3.5237,-3.5056,-3.5138,-3.5369,-3.5265,-3.5491,-3.5512,-3.5578,-3.5603,-3.5614,-3.5642,-3.5687,-3.5689,-3.5984,-3.5986,0,0,-3.5125,-3.5092,-3.5222,-3.5251,-3.5214,-3.5257,-3.5272,-3.5504,-3.5529,-3.5604,-3.5622,-3.5647,-3.5689,-3.5691,-3.5983,-3.5985,0,0,0,-3.5085,-3.5083,-3.5146,-3.5238,-3.5282,-3.5264,-3.5281,-3.5519,-3.5542,-3.5625,-3.5651,-3.5691,-3.5694,-3.5982,-3.5984,-3.601,0,0,0,-3.5077,-3.5059,-3.514,-3.5122,-3.5277,-3.5403,-3.5291,-3.5526,-3.5553,-3.5649,-3.5691,-3.5697,-3.5981,-3.5983,-3.6006,-3.6028,0,0,0,-3.5039,-3.5055,-3.5087,-3.512,-3.5221,-3.54,-3.5437,-3.5533,-3.5569,-3.5687,-3.5698,-3.598,-3.5983,-3.6003,-3.6023,-3.6096,0,0,0,-3.4989,-3.5107,-3.5087,-3.5228,-3.5218,-3.5414,-3.5436,-3.5584,-3.5688,-3.5692,-3.5981,-3.5984,-3.6002,-3.602,-3.6093,-3.6152,-3.6173,0,0,-3.5119,-3.5121,-3.5207,-3.5196,-3.5387,-3.5381,-3.5576,-3.5703,-3.5744,-3.5902,-3.591,-3.6008,-3.6023,-3.6095,-3.6305,-3.6321,0,0,0,-3.5237,-3.5298,-3.5356,-3.5453,-3.5553,-3.564,-3.574,-3.5787,-3.5922,-3.5819,-3.6055,-3.6065,-3.6109,-3.6139,-3.6153,-3.6193,-3.5996,-3.5996,-3.5995,-3.5374,-3.542,-3.5566,-3.564,-3.5734,-3.5836,-3.5917,-3.5998,-3.6017,-3.6072,-3.6119,-3.6241,-3.6274,-3.6285,-3.6327,-3.6154,-3.6154,-3.6154,-3.6155,-3.5569,-3.5663,-3.5686,-3.5835,-3.5883,-3.6009,-3.6111,-3.6121,-3.6245,-3.6209,-3.625,-3.6207,-3.6302,-3.6341,-3.6157,-3.6157,-3.6156,-3.6156,-3.6156,-3.5664,-3.5717,-3.5772,-3.5917,-3.6024,-3.6096,-3.6214,-3.6254,-3.6292,-3.6333,-3.6387,-3.6387,-3.6392,-3.6356,-3.6356,-3.6356,-3.6357,-3.6357,-3.6357,-3.5741,-3.5802,-3.5897,-3.6012,-3.6079,-3.6173,-3.6276,-3.6344,-3.6429,-3.6449,-3.645,-3.6464,-3.6303,-3.6262,-3.6364,-3.6363,-3.6362,-3.6362,-3.6361,-3.5922,-3.5887,-3.6033,-3.6101,-3.6239,-3.6342,-3.6392,-3.6526,-3.6588,-3.6645,-3.665,-3.6524,-3.653,-3.6519,-3.6485,-3.6639,-3.6639,-3.6639,-3.6639,-3.6002,-3.6009,-3.6167,-3.6272,-3.638,-3.6439,-3.6603,-3.6684,-3.6763,-3.6804,-3.6787,-3.6746,-3.6732,-3.6746,-3.673,-3.6699,-3.6904,-3.6905,-3.6905,-3.6116,-3.6135,-3.6266,-3.6342,-3.6453,-3.6548,-3.6703,-3.6823,-3.6905,-3.6916,-3.6837,-3.6826,-3.6759,-3.6735,-3.6745,-3.6719,-3.6664,0,0]}]]